Year,Month,Day,Hour,Minute,Value (Times are PST for temperature in C)
2012,07,07,00,00,13.90
2012,07,07,00,01,13.90
2012,07,07,00,04,13.80
2012,07,07,00,05,13.80
2012,07,07,00,06,13.80
2012,07,07,00,07,13.80
2012,07,07,00,08,13.80
2012,07,07,00,09,13.80
2012,07,07,00,10,13.80
2012,07,07,00,11,13.80
2012,07,07,00,12,13.80
2012,07,07,00,13,13.80
2012,07,07,00,14,13.70
2012,07,07,00,15,13.70
2012,07,07,00,16,13.70
2012,07,07,00,17,13.70
2012,07,07,00,18,13.70
2012,07,07,00,19,13.70
2012,07,07,00,20,13.70
2012,07,07,00,21,13.70
2012,07,07,00,22,13.70
2012,07,07,00,23,13.70
2012,07,07,00,24,13.60
2012,07,07,00,25,13.60
2012,07,07,00,26,13.60
2012,07,07,00,27,13.60
2012,07,07,00,28,13.60
2012,07,07,00,29,13.60
2012,07,07,00,30,13.60
2012,07,07,00,31,13.60
2012,07,07,00,32,13.60
2012,07,07,00,33,13.60
2012,07,07,00,34,13.60
2012,07,07,00,35,13.60
2012,07,07,00,36,13.60
2012,07,07,00,37,13.60
2012,07,07,00,38,13.60
2012,07,07,00,39,13.60
2012,07,07,00,40,13.60
2012,07,07,00,41,13.50
2012,07,07,00,42,13.50
2012,07,07,00,43,13.50
2012,07,07,00,44,13.50
2012,07,07,00,45,13.40
2012,07,07,00,46,13.40
2012,07,07,00,47,13.40
2012,07,07,00,48,13.40
2012,07,07,00,49,13.40
2012,07,07,00,50,13.40
2012,07,07,00,51,13.40
2012,07,07,00,52,13.30
2012,07,07,00,53,13.30
2012,07,07,00,54,13.30
2012,07,07,00,55,13.30
2012,07,07,00,56,13.30
2012,07,07,00,57,13.30
2012,07,07,00,58,13.30
2012,07,07,00,59,13.30
2012,07,07,01,00,13.30
2012,07,07,01,01,13.30
2012,07,07,01,04,13.20
2012,07,07,01,05,13.20
2012,07,07,01,06,13.20
2012,07,07,01,07,13.20
2012,07,07,01,08,13.20
2012,07,07,01,09,13.20
2012,07,07,01,10,13.20
2012,07,07,01,11,13.20
2012,07,07,01,12,13.20
2012,07,07,01,13,13.20
2012,07,07,01,14,13.20
2012,07,07,01,16,13.30
2012,07,07,01,17,13.30
2012,07,07,01,18,13.30
2012,07,07,01,19,13.30
2012,07,07,01,20,13.30
2012,07,07,01,21,13.30
2012,07,07,01,22,13.30
2012,07,07,01,23,13.30
2012,07,07,01,24,13.30
2012,07,07,01,25,13.30
2012,07,07,01,26,13.20
2012,07,07,01,27,13.20
2012,07,07,01,28,13.20
2012,07,07,01,29,13.20
2012,07,07,01,30,13.20
2012,07,07,01,31,13.10
2012,07,07,01,32,13.10
2012,07,07,01,33,13.10
2012,07,07,01,34,13.10
2012,07,07,01,35,13.10
2012,07,07,01,36,13.00
2012,07,07,01,37,13.00
2012,07,07,01,38,13.00
2012,07,07,01,39,13.00
2012,07,07,01,40,12.90
2012,07,07,01,41,12.90
2012,07,07,01,42,12.90
2012,07,07,01,43,12.90
2012,07,07,01,44,12.90
2012,07,07,01,45,12.90
2012,07,07,01,46,12.90
2012,07,07,01,47,12.90
2012,07,07,01,48,12.90
2012,07,07,01,49,12.90
2012,07,07,01,50,12.80
2012,07,07,01,51,12.80
2012,07,07,01,52,12.80
2012,07,07,01,53,12.80
2012,07,07,01,54,12.80
2012,07,07,01,55,12.80
2012,07,07,01,56,12.80
2012,07,07,01,57,12.80
2012,07,07,01,58,12.80
2012,07,07,01,59,12.70
2012,07,07,02,00,12.70
2012,07,07,02,01,12.70
2012,07,07,02,04,12.70
2012,07,07,02,05,12.60
2012,07,07,02,06,12.60
2012,07,07,02,07,12.60
2012,07,07,02,08,12.60
2012,07,07,02,09,12.60
2012,07,07,02,10,12.60
2012,07,07,02,11,12.60
2012,07,07,02,12,12.60
2012,07,07,02,13,12.60
2012,07,07,02,14,12.60
2012,07,07,02,15,12.60
2012,07,07,02,16,12.60
2012,07,07,02,17,12.50
2012,07,07,02,18,12.50
2012,07,07,02,19,12.50
2012,07,07,02,20,12.50
2012,07,07,02,21,12.50
2012,07,07,02,22,12.40
2012,07,07,02,23,12.40
2012,07,07,02,24,12.40
2012,07,07,02,25,12.30
2012,07,07,02,26,12.30
2012,07,07,02,27,12.30
2012,07,07,02,28,12.20
2012,07,07,02,29,12.20
2012,07,07,02,30,12.20
2012,07,07,02,31,12.20
2012,07,07,02,32,12.20
2012,07,07,02,33,12.10
2012,07,07,02,34,12.10
2012,07,07,02,35,12.10
2012,07,07,02,36,12.10
2012,07,07,02,37,12.10
2012,07,07,02,38,12.10
2012,07,07,02,39,12.10
2012,07,07,02,40,12.10
2012,07,07,02,41,12.10
2012,07,07,02,42,12.10
2012,07,07,02,43,12.10
2012,07,07,02,44,12.10
2012,07,07,02,45,12.10
2012,07,07,02,46,12.10
2012,07,07,02,47,12.10
2012,07,07,02,48,12.10
2012,07,07,02,49,12.10
2012,07,07,02,50,12.10
2012,07,07,02,51,12.10
2012,07,07,02,52,12.10
2012,07,07,02,53,12.10
2012,07,07,02,54,12.10
2012,07,07,02,55,12.10
2012,07,07,02,56,12.10
2012,07,07,02,57,12.10
2012,07,07,02,58,12.00
2012,07,07,02,59,12.00
2012,07,07,03,00,12.00
2012,07,07,03,01,12.00
2012,07,07,03,04,12.00
2012,07,07,03,05,12.00
2012,07,07,03,06,12.00
2012,07,07,03,07,12.00
2012,07,07,03,08,12.00
2012,07,07,03,09,12.00
2012,07,07,03,10,11.90
2012,07,07,03,11,11.90
2012,07,07,03,12,12.00
2012,07,07,03,13,12.00
2012,07,07,03,14,11.90
2012,07,07,03,15,11.90
2012,07,07,03,16,11.90
2012,07,07,03,17,11.90
2012,07,07,03,18,11.90
2012,07,07,03,19,11.90
2012,07,07,03,21,11.90
2012,07,07,03,22,11.90
2012,07,07,03,23,11.90
2012,07,07,03,24,11.90
2012,07,07,03,25,11.90
2012,07,07,03,26,11.90
2012,07,07,03,27,11.90
2012,07,07,03,28,11.80
2012,07,07,03,29,11.80
2012,07,07,03,30,11.80
2012,07,07,03,31,11.80
2012,07,07,03,32,11.80
2012,07,07,03,33,11.80
2012,07,07,03,34,11.80
2012,07,07,03,35,11.80
2012,07,07,03,36,11.80
2012,07,07,03,37,11.80
2012,07,07,03,38,11.80
2012,07,07,03,39,11.80
2012,07,07,03,40,11.80
2012,07,07,03,41,11.70
2012,07,07,03,42,11.70
2012,07,07,03,43,11.70
2012,07,07,03,44,11.70
2012,07,07,03,45,11.70
2012,07,07,03,46,11.70
2012,07,07,03,47,11.70
2012,07,07,03,48,11.60
2012,07,07,03,49,11.60
2012,07,07,03,50,11.60
2012,07,07,03,51,11.60
2012,07,07,03,52,11.60
2012,07,07,03,53,11.60
2012,07,07,03,54,11.60
2012,07,07,03,55,11.60
2012,07,07,03,56,11.50
2012,07,07,03,57,11.50
2012,07,07,03,58,11.50
2012,07,07,03,59,11.40
2012,07,07,04,00,11.40
2012,07,07,04,01,11.40
2012,07,07,04,04,11.40
2012,07,07,04,05,11.40
2012,07,07,04,06,11.40
2012,07,07,04,07,11.40
2012,07,07,04,08,11.30
2012,07,07,04,09,11.30
2012,07,07,04,10,11.30
2012,07,07,04,11,11.30
2012,07,07,04,12,11.30
2012,07,07,04,13,11.30
2012,07,07,04,14,11.30
2012,07,07,04,15,11.30
2012,07,07,04,16,11.20
2012,07,07,04,17,11.20
2012,07,07,04,18,11.20
2012,07,07,04,19,11.20
2012,07,07,04,20,11.20
2012,07,07,04,21,11.20
2012,07,07,04,22,11.20
2012,07,07,04,23,11.20
2012,07,07,04,24,11.10
2012,07,07,04,25,11.10
2012,07,07,04,26,11.10
2012,07,07,04,27,11.10
2012,07,07,04,28,11.10
2012,07,07,04,29,11.00
2012,07,07,04,30,11.00
2012,07,07,04,31,11.00
2012,07,07,04,32,10.90
2012,07,07,04,33,10.90
2012,07,07,04,34,10.90
2012,07,07,04,35,10.90
2012,07,07,04,36,10.90
2012,07,07,04,37,10.90
2012,07,07,04,38,10.90
2012,07,07,04,39,10.90
2012,07,07,04,40,10.90
2012,07,07,04,41,10.90
2012,07,07,04,42,10.80
2012,07,07,04,43,10.80
2012,07,07,04,44,10.80
2012,07,07,04,45,10.80
2012,07,07,04,46,10.80
2012,07,07,04,47,10.80
2012,07,07,04,48,10.80
2012,07,07,04,49,10.80
2012,07,07,04,50,10.80
2012,07,07,04,51,10.80
2012,07,07,04,52,10.80
2012,07,07,04,53,10.70
2012,07,07,04,54,10.70
2012,07,07,04,55,10.70
2012,07,07,04,56,10.70
2012,07,07,04,57,10.70
2012,07,07,04,58,10.70
2012,07,07,04,59,10.60
2012,07,07,05,00,10.60
2012,07,07,05,01,10.60
2012,07,07,05,04,10.60
2012,07,07,05,05,10.60
2012,07,07,05,06,10.60
2012,07,07,05,07,10.60
2012,07,07,05,08,10.50
2012,07,07,05,09,10.50
2012,07,07,05,10,10.50
2012,07,07,05,11,10.50
2012,07,07,05,12,10.50
2012,07,07,05,13,10.50
2012,07,07,05,14,10.50
2012,07,07,05,15,10.50
2012,07,07,05,16,10.50
2012,07,07,05,17,10.50
2012,07,07,05,18,10.40
2012,07,07,05,19,10.40
2012,07,07,05,20,10.40
2012,07,07,05,21,10.40
2012,07,07,05,22,10.40
2012,07,07,05,23,10.40
2012,07,07,05,24,10.40
2012,07,07,05,25,10.40
2012,07,07,05,26,10.40
2012,07,07,05,27,10.40
2012,07,07,05,28,10.40
2012,07,07,05,29,10.30
2012,07,07,05,30,10.30
2012,07,07,05,31,10.30
2012,07,07,05,32,10.30
2012,07,07,05,33,10.30
2012,07,07,05,34,10.30
2012,07,07,05,35,10.30
2012,07,07,05,36,10.30
2012,07,07,05,37,10.30
2012,07,07,05,38,10.30
2012,07,07,05,39,10.30
2012,07,07,05,40,10.20
2012,07,07,05,41,10.20
2012,07,07,05,42,10.20
2012,07,07,05,43,10.20
2012,07,07,05,44,10.20
2012,07,07,05,45,10.20
2012,07,07,05,46,10.20
2012,07,07,05,47,10.20
2012,07,07,05,48,10.20
2012,07,07,05,49,10.20
2012,07,07,05,50,10.20
2012,07,07,05,51,10.20
2012,07,07,05,52,10.20
2012,07,07,05,53,10.10
2012,07,07,05,54,10.10
2012,07,07,05,55,10.10
2012,07,07,05,56,10.10
2012,07,07,05,57,10.10
2012,07,07,05,58,10.20
2012,07,07,05,59,10.20
2012,07,07,06,00,10.20
2012,07,07,06,01,10.20
2012,07,07,06,02,10.20
2012,07,07,06,03,10.20
2012,07,07,06,07,10.20
2012,07,07,06,08,10.20
2012,07,07,06,09,10.30
2012,07,07,06,10,10.30
2012,07,07,06,11,10.30
2012,07,07,06,12,10.30
2012,07,07,06,13,10.30
2012,07,07,06,14,10.30
2012,07,07,06,15,10.30
2012,07,07,06,16,10.30
2012,07,07,06,17,10.30
2012,07,07,06,18,10.30
2012,07,07,06,19,10.30
2012,07,07,06,20,10.30
2012,07,07,06,21,10.30
2012,07,07,06,22,10.30
2012,07,07,06,23,10.30
2012,07,07,06,24,10.30
2012,07,07,06,25,10.40
2012,07,07,06,26,10.40
2012,07,07,06,27,10.40
2012,07,07,06,39,10.50
2012,07,07,06,40,10.50
2012,07,07,06,41,10.50
2012,07,07,06,42,10.50
2012,07,07,06,43,10.50
2012,07,07,06,44,10.50
2012,07,07,06,45,10.50
2012,07,07,06,46,10.50
2012,07,07,06,47,10.50
2012,07,07,06,48,10.60
2012,07,07,06,49,10.60
2012,07,07,06,50,10.60
2012,07,07,06,51,10.60
2012,07,07,06,52,10.70
2012,07,07,06,53,10.70
2012,07,07,06,54,10.70
2012,07,07,06,55,10.70
2012,07,07,06,56,10.70
2012,07,07,06,57,10.80
2012,07,07,06,58,10.80
2012,07,07,06,59,10.80
2012,07,07,07,00,10.80
2012,07,07,07,01,10.80
2012,07,07,07,04,10.90
2012,07,07,07,05,10.90
2012,07,07,07,06,11.00
2012,07,07,07,07,11.00
2012,07,07,07,08,11.10
2012,07,07,07,09,11.10
2012,07,07,07,10,11.20
2012,07,07,07,11,11.20
2012,07,07,07,12,11.20
2012,07,07,07,13,11.30
2012,07,07,07,14,11.30
2012,07,07,07,15,11.30
2012,07,07,07,16,11.30
2012,07,07,07,17,11.30
2012,07,07,07,18,11.30
2012,07,07,07,19,11.30
2012,07,07,07,20,11.30
2012,07,07,07,21,11.30
2012,07,07,07,22,11.30
2012,07,07,07,23,11.30
2012,07,07,07,24,11.30
2012,07,07,07,25,11.30
2012,07,07,07,26,11.30
2012,07,07,07,27,11.30
2012,07,07,07,28,11.30
2012,07,07,07,29,11.30
2012,07,07,07,30,11.30
2012,07,07,07,31,11.30
2012,07,07,07,32,11.30
2012,07,07,07,33,11.30
2012,07,07,07,34,11.30
2012,07,07,07,35,11.30
2012,07,07,07,36,11.30
2012,07,07,07,37,11.40
2012,07,07,07,38,11.40
2012,07,07,07,39,11.50
2012,07,07,07,40,11.60
2012,07,07,07,41,11.60
2012,07,07,07,42,11.60
2012,07,07,07,43,11.70
2012,07,07,07,44,11.70
2012,07,07,07,45,11.80
2012,07,07,07,46,11.80
2012,07,07,07,47,11.80
2012,07,07,07,48,11.90
2012,07,07,07,49,12.00
2012,07,07,07,50,12.10
2012,07,07,07,51,12.10
2012,07,07,07,52,12.20
2012,07,07,07,53,12.30
2012,07,07,07,54,12.30
2012,07,07,07,55,12.30
2012,07,07,07,56,12.30
2012,07,07,07,57,12.40
2012,07,07,07,58,12.40
2012,07,07,07,59,12.40
2012,07,07,08,00,12.50
2012,07,07,08,01,12.60
2012,07,07,08,04,12.70
2012,07,07,08,05,12.80
2012,07,07,08,06,12.80
2012,07,07,08,07,12.80
2012,07,07,08,08,12.90
2012,07,07,08,09,12.90
2012,07,07,08,10,13.00
2012,07,07,08,11,13.10
2012,07,07,08,12,13.10
2012,07,07,08,13,13.20
2012,07,07,08,14,13.20
2012,07,07,08,15,13.20
2012,07,07,08,16,13.20
2012,07,07,08,17,13.20
2012,07,07,08,18,13.20
2012,07,07,08,19,13.20
2012,07,07,08,20,13.20
2012,07,07,08,21,13.20
2012,07,07,08,22,13.20
2012,07,07,08,23,13.20
2012,07,07,08,24,13.30
2012,07,07,08,25,13.30
2012,07,07,08,26,13.40
2012,07,07,08,27,13.40
2012,07,07,08,29,13.40
2012,07,07,08,30,13.50
2012,07,07,08,31,13.50
2012,07,07,08,32,13.60
2012,07,07,08,33,13.60
2012,07,07,08,34,13.70
2012,07,07,08,35,13.70
2012,07,07,08,36,13.70
2012,07,07,08,37,13.70
2012,07,07,08,38,13.80
2012,07,07,08,39,13.80
2012,07,07,08,40,13.80
2012,07,07,08,41,13.80
2012,07,07,08,42,13.90
2012,07,07,08,43,13.90
2012,07,07,08,44,13.90
2012,07,07,08,45,13.90
2012,07,07,08,46,13.90
2012,07,07,08,47,13.90
2012,07,07,08,48,13.90
2012,07,07,08,49,13.90
2012,07,07,08,50,14.00
2012,07,07,08,51,14.10
2012,07,07,08,52,14.10
2012,07,07,08,53,14.20
2012,07,07,08,54,14.20
2012,07,07,08,55,14.30
2012,07,07,08,56,14.30
2012,07,07,08,57,14.30
2012,07,07,08,58,14.30
2012,07,07,08,59,14.30
2012,07,07,09,00,14.30
2012,07,07,09,01,14.40
2012,07,07,09,04,14.40
2012,07,07,09,05,14.40
2012,07,07,09,06,14.50
2012,07,07,09,07,14.60
2012,07,07,09,08,14.60
2012,07,07,09,09,14.60
2012,07,07,09,10,14.60
2012,07,07,09,11,14.60
2012,07,07,09,12,14.60
2012,07,07,09,13,14.60
2012,07,07,09,14,14.60
2012,07,07,09,15,14.70
2012,07,07,09,16,14.70
2012,07,07,09,17,14.80
2012,07,07,09,18,14.80
2012,07,07,09,19,14.90
2012,07,07,09,20,15.00
2012,07,07,09,21,15.00
2012,07,07,09,22,15.00
2012,07,07,09,23,15.00
2012,07,07,09,24,15.10
2012,07,07,09,25,15.20
2012,07,07,09,26,15.30
2012,07,07,09,27,15.30
2012,07,07,09,28,15.40
2012,07,07,09,29,15.40
2012,07,07,09,30,15.40
2012,07,07,09,31,15.50
2012,07,07,09,32,15.50
2012,07,07,09,33,15.60
2012,07,07,09,34,15.60
2012,07,07,09,35,15.70
2012,07,07,09,36,15.80
2012,07,07,09,37,15.80
2012,07,07,09,38,15.90
2012,07,07,09,39,15.90
2012,07,07,09,40,16.00
2012,07,07,09,41,16.00
2012,07,07,09,42,16.00
2012,07,07,09,43,15.90
2012,07,07,09,44,15.90
2012,07,07,09,45,15.90
2012,07,07,09,46,15.90
2012,07,07,09,47,15.90
2012,07,07,09,48,15.90
2012,07,07,09,49,15.90
2012,07,07,09,50,15.90
2012,07,07,09,51,15.90
2012,07,07,09,52,15.90
2012,07,07,09,53,15.90
2012,07,07,09,54,15.90
2012,07,07,09,55,15.90
2012,07,07,09,56,15.90
2012,07,07,09,57,16.00
2012,07,07,09,58,16.00
2012,07,07,09,59,16.10
2012,07,07,10,00,16.10
2012,07,07,10,01,16.10
2012,07,07,10,04,16.20
2012,07,07,10,05,16.30
2012,07,07,10,06,16.30
2012,07,07,10,07,16.40
2012,07,07,10,08,16.40
2012,07,07,10,09,16.60
2012,07,07,10,10,16.60
2012,07,07,10,11,16.80
2012,07,07,10,12,16.80
2012,07,07,10,13,16.90
2012,07,07,10,14,17.10
2012,07,07,10,15,17.20
2012,07,07,10,16,17.30
2012,07,07,10,17,17.30
2012,07,07,10,18,17.30
2012,07,07,10,19,17.30
2012,07,07,10,20,17.30
2012,07,07,10,21,17.40
2012,07,07,10,22,17.50
2012,07,07,10,23,17.60
2012,07,07,10,24,17.70
2012,07,07,10,25,17.70
2012,07,07,10,26,17.80
2012,07,07,10,27,17.90
2012,07,07,10,28,17.90
2012,07,07,10,29,18.10
2012,07,07,10,30,18.20
2012,07,07,10,31,18.20
2012,07,07,10,32,18.30
2012,07,07,10,33,18.40
2012,07,07,10,34,18.40
2012,07,07,10,35,18.40
2012,07,07,10,36,18.40
2012,07,07,10,37,18.30
2012,07,07,10,38,18.30
2012,07,07,10,39,18.30
2012,07,07,10,40,18.20
2012,07,07,10,41,18.20
2012,07,07,10,42,18.20
2012,07,07,10,43,18.20
2012,07,07,10,44,18.20
2012,07,07,10,45,18.20
2012,07,07,10,46,18.20
2012,07,07,10,47,18.30
2012,07,07,10,48,18.40
2012,07,07,10,49,18.50
2012,07,07,10,50,18.60
2012,07,07,10,51,18.70
2012,07,07,10,52,18.70
2012,07,07,10,53,18.70
2012,07,07,10,54,18.80
2012,07,07,10,55,18.80
2012,07,07,10,56,18.90
2012,07,07,10,57,19.00
2012,07,07,10,58,18.90
2012,07,07,10,59,18.90
2012,07,07,11,00,18.90
2012,07,07,11,01,18.90
2012,07,07,11,04,19.00
2012,07,07,11,05,19.10
2012,07,07,11,06,19.10
2012,07,07,11,07,19.20
2012,07,07,11,08,19.20
2012,07,07,11,09,19.30
2012,07,07,11,10,19.30
2012,07,07,11,11,19.40
2012,07,07,11,12,19.40
2012,07,07,11,13,19.50
2012,07,07,11,14,19.60
2012,07,07,11,15,19.60
2012,07,07,11,16,19.60
2012,07,07,11,17,19.60
2012,07,07,11,18,19.60
2012,07,07,11,19,19.60
2012,07,07,11,20,19.60
2012,07,07,11,21,19.60
2012,07,07,11,22,19.70
2012,07,07,11,23,19.70
2012,07,07,11,24,19.70
2012,07,07,11,25,19.80
2012,07,07,11,26,19.80
2012,07,07,11,27,19.90
2012,07,07,11,28,19.90
2012,07,07,11,29,19.90
2012,07,07,11,30,19.90
2012,07,07,11,31,19.90
2012,07,07,11,32,19.90
2012,07,07,11,33,19.90
2012,07,07,11,34,19.90
2012,07,07,11,35,19.90
2012,07,07,11,36,19.90
2012,07,07,11,37,19.90
2012,07,07,11,38,19.90
2012,07,07,11,39,20.00
2012,07,07,11,40,20.10
2012,07,07,11,41,20.20
2012,07,07,11,42,20.30
2012,07,07,11,43,20.30
2012,07,07,11,44,20.30
2012,07,07,11,45,20.40
2012,07,07,11,46,20.40
2012,07,07,11,47,20.60
2012,07,07,11,48,20.60
2012,07,07,11,49,20.60
2012,07,07,11,50,20.70
2012,07,07,11,51,20.80
2012,07,07,11,52,20.80
2012,07,07,11,53,20.90
2012,07,07,11,54,21.10
2012,07,07,11,55,21.20
2012,07,07,11,56,21.30
2012,07,07,11,57,21.30
2012,07,07,11,58,21.40
2012,07,07,11,59,21.50
2012,07,07,12,00,21.60
2012,07,07,12,01,21.70
2012,07,07,12,04,21.90
2012,07,07,12,05,21.90
2012,07,07,12,06,22.00
2012,07,07,12,07,22.00
2012,07,07,12,08,22.00
2012,07,07,12,10,21.90
2012,07,07,12,11,21.90
2012,07,07,12,13,22.00
2012,07,07,12,15,22.00
2012,07,07,12,17,22.10
2012,07,07,12,18,22.10
2012,07,07,12,19,22.10
2012,07,07,12,20,22.20
2012,07,07,12,22,22.20
2012,07,07,12,23,22.20
2012,07,07,12,24,22.20
2012,07,07,12,25,22.30
2012,07,07,12,27,22.30
2012,07,07,12,28,22.30
2012,07,07,12,30,22.20
2012,07,07,12,32,22.20
2012,07,07,12,34,22.20
2012,07,07,12,35,22.20
2012,07,07,12,36,22.20
2012,07,07,12,38,22.30
2012,07,07,12,40,22.40
2012,07,07,12,42,22.60
2012,07,07,12,43,22.60
2012,07,07,12,45,22.70
2012,07,07,12,46,22.70
2012,07,07,12,48,22.80
2012,07,07,12,49,22.80
2012,07,07,12,50,22.80
2012,07,07,12,52,22.80
2012,07,07,12,53,22.80
2012,07,07,12,54,22.80
2012,07,07,12,55,22.90
2012,07,07,12,56,22.90
2012,07,07,12,58,23.10
2012,07,07,12,59,23.20
2012,07,07,13,00,23.20
2012,07,07,13,01,23.30
2012,07,07,13,02,23.30
2012,07,07,13,06,23.60
2012,07,07,13,07,23.70
2012,07,07,13,09,23.80
2012,07,07,13,10,23.80
2012,07,07,13,11,23.80
2012,07,07,13,13,23.80
2012,07,07,13,14,23.80
2012,07,07,13,15,23.80
2012,07,07,13,16,23.80
2012,07,07,13,17,23.80
2012,07,07,13,18,23.80
2012,07,07,13,20,23.90
2012,07,07,13,21,24.00
2012,07,07,13,23,24.20
2012,07,07,13,25,24.30
2012,07,07,13,26,24.40
2012,07,07,13,27,24.50
2012,07,07,13,28,24.50
2012,07,07,13,30,24.60
2012,07,07,13,31,24.60
2012,07,07,13,32,24.60
2012,07,07,13,33,24.60
2012,07,07,13,34,24.60
2012,07,07,13,35,24.70
2012,07,07,13,36,24.70
2012,07,07,13,37,24.80
2012,07,07,13,39,25.00
2012,07,07,13,40,25.10
2012,07,07,13,41,25.10
2012,07,07,13,42,25.10
2012,07,07,13,43,25.10
2012,07,07,13,44,25.20
2012,07,07,13,45,25.20
2012,07,07,13,46,25.20
2012,07,07,13,47,25.20
2012,07,07,13,48,25.30
2012,07,07,13,49,25.40
2012,07,07,13,50,25.50
2012,07,07,13,51,25.60
2012,07,07,13,53,25.70
2012,07,07,13,54,25.70
2012,07,07,13,55,25.70
2012,07,07,13,56,25.80
2012,07,07,13,57,25.80
2012,07,07,13,58,25.90
2012,07,07,14,00,25.90
2012,07,07,14,01,25.90
2012,07,07,14,04,26.10
2012,07,07,14,05,26.10
2012,07,07,14,06,26.10
2012,07,07,14,08,26.10
2012,07,07,14,09,26.20
2012,07,07,14,10,26.20
2012,07,07,14,11,26.20
2012,07,07,14,12,26.20
2012,07,07,14,13,26.30
2012,07,07,14,14,26.30
2012,07,07,14,15,26.30
2012,07,07,14,16,26.30
2012,07,07,14,17,26.30
2012,07,07,14,19,26.30
2012,07,07,14,20,26.30
2012,07,07,14,21,26.30
2012,07,07,14,22,26.40
2012,07,07,14,23,26.40
2012,07,07,14,24,26.40
2012,07,07,14,25,26.40
2012,07,07,14,26,26.40
2012,07,07,14,27,26.40
2012,07,07,14,29,26.50
2012,07,07,14,30,26.60
2012,07,07,14,31,26.60
2012,07,07,14,32,26.70
2012,07,07,14,33,26.70
2012,07,07,14,35,26.70
2012,07,07,14,36,26.70
2012,07,07,14,37,26.70
2012,07,07,14,38,26.70
2012,07,07,14,39,26.70
2012,07,07,14,40,26.80
2012,07,07,14,41,26.80
2012,07,07,14,42,26.90
2012,07,07,14,43,27.00
2012,07,07,14,44,27.10
2012,07,07,14,45,27.20
2012,07,07,14,46,27.20
2012,07,07,14,47,27.20
2012,07,07,14,48,27.20
2012,07,07,14,49,27.20
2012,07,07,14,50,27.20
2012,07,07,14,51,27.20
2012,07,07,14,52,27.20
2012,07,07,14,53,27.20
2012,07,07,14,54,27.30
2012,07,07,14,55,27.30
2012,07,07,14,56,27.40
2012,07,07,14,57,27.40
2012,07,07,14,58,27.40
2012,07,07,14,59,27.40
2012,07,07,15,00,27.40
2012,07,07,15,01,27.30
2012,07,07,15,05,27.40
2012,07,07,15,06,27.40
2012,07,07,15,07,27.30
2012,07,07,15,08,27.30
2012,07,07,15,09,27.30
2012,07,07,15,10,27.30
2012,07,07,15,11,27.20
2012,07,07,15,12,27.20
2012,07,07,15,13,27.20
2012,07,07,15,14,27.20
2012,07,07,15,15,27.20
2012,07,07,15,17,27.30
2012,07,07,15,18,27.30
2012,07,07,15,19,27.40
2012,07,07,15,20,27.40
2012,07,07,15,21,27.50
2012,07,07,15,22,27.50
2012,07,07,15,23,27.50
2012,07,07,15,24,27.60
2012,07,07,15,25,27.60
2012,07,07,15,26,27.60
2012,07,07,15,27,27.60
2012,07,07,15,29,27.60
2012,07,07,15,30,27.60
2012,07,07,15,31,27.50
2012,07,07,15,32,27.40
2012,07,07,15,33,27.30
2012,07,07,15,34,27.30
2012,07,07,15,35,27.30
2012,07,07,15,36,27.30
2012,07,07,15,37,27.30
2012,07,07,15,38,27.30
2012,07,07,15,39,27.30
2012,07,07,15,40,27.30
2012,07,07,15,41,27.30
2012,07,07,15,42,27.20
2012,07,07,15,43,27.20
2012,07,07,15,44,27.20
2012,07,07,15,45,27.20
2012,07,07,15,46,27.30
2012,07,07,15,47,27.30
2012,07,07,15,48,27.30
2012,07,07,15,49,27.30
2012,07,07,15,50,27.40
2012,07,07,15,51,27.30
2012,07,07,15,52,27.30
2012,07,07,15,53,27.30
2012,07,07,15,54,27.30
2012,07,07,15,55,27.30
2012,07,07,15,57,27.30
2012,07,07,15,58,27.30
2012,07,07,15,59,27.40
2012,07,07,16,00,27.40
2012,07,07,16,01,27.50
2012,07,07,16,02,27.60
2012,07,07,16,05,27.60
2012,07,07,16,06,27.70
2012,07,07,16,07,27.70
2012,07,07,16,09,27.70
2012,07,07,16,10,27.70
2012,07,07,16,11,27.70
2012,07,07,16,13,27.70
2012,07,07,16,14,27.70
2012,07,07,16,15,27.70
2012,07,07,16,16,27.70
2012,07,07,16,17,27.70
2012,07,07,16,18,27.70
2012,07,07,16,19,27.70
2012,07,07,16,20,27.60
2012,07,07,16,21,27.60
2012,07,07,16,22,27.50
2012,07,07,16,23,27.50
2012,07,07,16,24,27.40
2012,07,07,16,25,27.50
2012,07,07,16,26,27.50
2012,07,07,16,27,27.60
2012,07,07,16,28,27.60
2012,07,07,16,30,27.50
2012,07,07,16,31,27.50
2012,07,07,16,32,27.50
2012,07,07,16,33,27.50
2012,07,07,16,34,27.60
2012,07,07,16,35,27.60
2012,07,07,16,36,27.60
2012,07,07,16,37,27.60
2012,07,07,16,38,27.60
2012,07,07,16,39,27.60
2012,07,07,16,40,27.70
2012,07,07,16,41,27.70
2012,07,07,16,42,27.70
2012,07,07,16,43,27.70
2012,07,07,16,44,27.70
2012,07,07,16,45,27.70
2012,07,07,16,46,27.70
2012,07,07,16,47,27.70
2012,07,07,16,48,27.70
2012,07,07,16,49,27.70
2012,07,07,16,50,27.80
2012,07,07,16,52,27.90
2012,07,07,16,53,27.80
2012,07,07,16,54,27.80
2012,07,07,16,55,27.80
2012,07,07,16,56,27.80
2012,07,07,16,58,27.70
2012,07,07,16,59,27.70
2012,07,07,17,00,27.60
2012,07,07,17,01,27.60
2012,07,07,17,02,27.60
2012,07,07,17,05,27.60
2012,07,07,17,07,27.50
2012,07,07,17,08,27.50
2012,07,07,17,09,27.50
2012,07,07,17,10,27.50
2012,07,07,17,11,27.50
2012,07,07,17,12,27.60
2012,07,07,17,13,27.60
2012,07,07,17,15,27.70
2012,07,07,17,16,27.80
2012,07,07,17,17,27.80
2012,07,07,17,18,27.80
2012,07,07,17,20,27.80
2012,07,07,17,21,27.80
2012,07,07,17,22,27.80
2012,07,07,17,23,27.80
2012,07,07,17,24,27.90
2012,07,07,17,25,27.90
2012,07,07,17,26,27.90
2012,07,07,17,27,27.90
2012,07,07,17,28,27.90
2012,07,07,17,29,28.00
2012,07,07,17,30,28.10
2012,07,07,17,31,28.10
2012,07,07,17,32,28.10
2012,07,07,17,33,28.10
2012,07,07,17,34,28.10
2012,07,07,17,35,28.10
2012,07,07,17,36,28.10
2012,07,07,17,37,28.00
2012,07,07,17,38,28.10
2012,07,07,17,39,28.10
2012,07,07,17,40,28.10
2012,07,07,17,41,28.10
2012,07,07,17,43,28.10
2012,07,07,17,44,28.10
2012,07,07,17,45,28.10
2012,07,07,17,46,28.10
2012,07,07,17,47,28.10
2012,07,07,17,49,28.10
2012,07,07,17,50,28.10
2012,07,07,17,51,28.20
2012,07,07,17,52,28.20
2012,07,07,17,53,28.20
2012,07,07,17,54,28.20
2012,07,07,17,55,28.20
2012,07,07,17,56,28.30
2012,07,07,17,57,28.30
2012,07,07,17,58,28.20
2012,07,07,18,00,28.10
2012,07,07,18,01,28.10
2012,07,07,18,02,28.00
2012,07,07,18,03,28.00
2012,07,07,18,06,27.90
2012,07,07,18,07,27.90
2012,07,07,18,08,27.90
2012,07,07,18,09,27.90
2012,07,07,18,10,27.90
2012,07,07,18,11,27.90
2012,07,07,18,12,27.90
2012,07,07,18,13,27.90
2012,07,07,18,15,27.80
2012,07,07,18,16,27.70
2012,07,07,18,17,27.70
2012,07,07,18,18,27.60
2012,07,07,18,19,27.50
2012,07,07,18,20,27.50
2012,07,07,18,22,27.40
2012,07,07,18,23,27.40
2012,07,07,18,24,27.40
2012,07,07,18,25,27.40
2012,07,07,18,26,27.30
2012,07,07,18,28,27.20
2012,07,07,18,29,27.20
2012,07,07,18,30,27.20
2012,07,07,18,31,27.20
2012,07,07,18,32,27.10
2012,07,07,18,33,27.10
2012,07,07,18,34,27.10
2012,07,07,18,35,27.00
2012,07,07,18,36,27.00
2012,07,07,18,37,27.00
2012,07,07,18,38,27.00
2012,07,07,18,40,26.90
2012,07,07,18,42,26.90
2012,07,07,18,43,26.80
2012,07,07,18,46,26.70
2012,07,07,18,47,26.60
2012,07,07,18,49,26.50
2012,07,07,18,53,26.40
2012,07,07,18,55,26.30
2012,07,07,18,56,26.20
2012,07,07,18,57,26.20
2012,07,07,18,59,26.10
2012,07,07,19,00,26.10
2012,07,07,19,01,26.00
2012,07,07,19,02,25.90
2012,07,07,19,03,25.90
2012,07,07,19,09,25.50
2012,07,07,19,10,25.40
2012,07,07,19,11,25.40
2012,07,07,19,12,25.30
2012,07,07,19,13,25.30
2012,07,07,19,14,25.20
2012,07,07,19,15,25.20